Home   Weather   Brno   Past weeks

Flag for Czech Republic Past Weather in Brno, Czech Republic — Yesterday and Last 2 Weeks

Now
23 °F

Passing clouds.


Feels Like: 23 °F
Forecast: 18 / 33 °F
Wind: 2 mph from North

Location: Brno / Turany

Current Time: Dec 5, 2016 at 5:39:50 am

Latest Report: Dec 5, 2016 at 5:00 am


Visibility: 6 mi

Pressure: 30.50 "Hg

Humidity: 90%

Dew Point: 20 °F

Location of BrnoLocation

Past Weather in Brno — Graph

°F

Brno Temperature Yesterday

Maximum temperature yesterday: 33 °F (at 2:00 pm)
Minimum temperature yesterday: 20 °F (at 7:00 am)
Average temperature yesterday: 26 °F

High & Low Weather Summary for the Past Weeks

 TemperatureHumidityPressure
High55 °F (Nov 22, 1:00 pm)100% (Nov 24, 8:00 pm)30.55 "Hg (Nov 24, 8:00 pm)
Low20 °F (Dec 4, 7:00 am)53% (Nov 28, 2:00 pm)29.72 "Hg (Dec 2, 5:00 am)
Average39 °F82%30.17 "Hg
* Reported Nov 20 1:00 am — Dec 5 1:00 am, Brno, Weather by CustomWeather, © 2016

Note: Actual official high and low records may vary slightly from our data, if they occured in-between our weather recording intervals... More about our weather records

Advertising

Brno Weather History for the Previous 24 Hours

Scroll right to see more
 ConditionsComfort  
Time TempWeatherWind HumidityBarometerVisibility
1:00 am
Mon, Dec 5
21 °FPassing clouds.1 mph89%30.53 "Hg6 mi
12:00 am22 °FClear.2 mph90%30.53 "Hg6 mi
11:00 pm
Sun, Dec 4
22 °FClear.2 mph90%30.53 "Hg6 mi
10:00 pm23 °FClear.2 mph93%30.53 "Hg6 mi
9:00 pm24 °FFog.2 mph93%30.53 "Hg6 mi
8:00 pm24 °FFog.1 mph90%30.52 "Hg6 mi
7:00 pm25 °FFog.3 mph92%30.51 "Hg6 mi
6:00 pm26 °FFog.5 mph93%30.50 "Hg6 mi
5:00 pm27 °FFog.3 mph92%30.49 "Hg5 mi
4:00 pm30 °FFog.3 mph89%30.47 "Hg5 mi
3:00 pm32 °FPassing clouds.2 mph81%30.47 "Hg7 mi
2:00 pm33 °FPassing clouds.2 mph78%30.46 "Hg7 mi
1:00 pm33 °FPassing clouds.2 mph78%30.46 "Hg6 mi
12:00 pm31 °FFog.2 mph83%30.47 "Hg5 mi
11:00 am30 °FFog.1 mph80%30.48 "Hg4 mi
10:00 am27 °FPartly sunny.1 mph86%30.49 "Hg6 mi
9:00 am24 °FPartly sunny.1 mph88%30.48 "Hg7 mi
8:00 am22 °FPartly sunny.1 mph89%30.47 "Hg9 mi
7:00 am20 °FPassing clouds.1 mph90%30.45 "Hg12 mi
6:00 am21 °FPassing clouds.1 mph89%30.44 "Hg17 mi
5:00 am22 °FClear.1 mph90%30.43 "Hg17 mi
Weather by CustomWeather, © 2016

See weather overviewHow to use our weather pages